Погода в Акъяре

Погода в Акъяре : погода сейчас, прогноз погоды и архив. Всё, что Вы хотите узнать о погоде в Акъяре!

Поиск расширенной информации на нашем сайте:

Другие новости

Новости СМИ2

Главная страница сайта

Новости сайта

03.07.2017

Напоминаем, что на нашем специализированном сайте Метеоцентр.Азия вы можете получить высокодетализированные автоматические прогнозы погоды по пунктам России, СНГ и мира в авиационном формате (включающие направление и скорость ветра, видимость, явления погоды, количество и форму облачности, нижнюю и верхнюю границу облачности).


Погода в Акъяре - сегодня

Время (UTC), дата Ветер
(°,м/с) 
Видим.   Явления Облачность Т
(°С)
Тd
(°С)
f(%) Тe
(°С)
Pmin
(гПа)
dP
(гПа)
Po
(мм)
O2
(г/м3)
Тmin Tmax R s Состояние
почвы
21 18.04.18 110 (В) 20000 м    4/0 верхняя 
[Ci fib]
+1.1 -3.8 70 1018.9  -1.1  733  294           
00 19.04.18 110 (В) 20000 м    8/8 600 м 
[Sc]
+1.4 -1.9 79 1017.5  -1.3  732  293           
03 19.04.18 130 (ЮВ) 20000 м  {ливн. осадки}  9/8 600 м кучево-дожд., средняя, верхняя 
[Cb cap|Ac trans|Ci fib]
+2.6 -0.9 78 +1  1015.7  -1.5  730  292  +0.3    0.3    влажная 
06 19.04.18 140 (ЮВ) 20000 м  {ливн. осадки}  9/8 600 м кучево-дожд., верхняя 
[Cb cap|Cs]
+6.7 +0.9 66 +7  1013.9  -1  730  287  -0.2         
09 19.04.18 180 (Ю) 4000 м  слаб. ливневой дождь  10/8 600 м кучево-дожд., средняя 
[Cb cap|Ac As]
+7.8 +5.5 85 +7  1012.8  -1  729  285           
12 19.04.18 200 (Ю) 4000 м  дымка{ливн. осадки}  10/8 600 м кучево-дожд., средняя 
[Cb cap|Ac As]
+10.4 +7.6 83 +11  1011.3  -1  728  281           
18 19.04.18 240 (ЮЗ) 3{10}  10 км    10/6 600 м кучево-дожд., средняя 
[Cb cap|Ac As]
+7.5 +3.9 78 +7  1011.4  0.1  728  285           
21 19.04.18 170 (Ю) 10 км    10/6 600 м кучево-дожд., средняя 
[Cb cap|Ac As]
+5.8 +3.1 83 +7  1009.6  -1.9  726  286           
00 20.04.18 180 (Ю) 10 км    10/10 600 м кучево-дожд. 
[Cb cap]
+5.9 +2.6 79 +6  1007.8  -1.8  725  286           
03 20.04.18 200 (Ю) 20000 м    9/8 600 м кучево-дожд., средняя 
[Cb cap|Ac As]
+6.1 +1.7 73 +6  1006.8  -0.9  724  285  +5.5        влажная 
06 20.04.18 210 (ЮЗ) 20000 м    9/8 600 м кучево-дожд., средняя 
[Cb cap|Ac trans]
+11.4 -0.4 44 +11  1004.3  -1.7  723  280           
09 20.04.18 210 (ЮЗ) 8-14{14}  20000 м    9/3 600 м кучево-дожд., средняя, верхняя 
[Cb cap|Ac trans|Cs]
+16.6 -3 26 +16  1001.4  -2  722  274           
18 20.04.18 210 (ЮЗ) 10 км  слаб. ливневой дождь  10/10 600 м кучево-дожд. 
[Cb cap]
+8.1 +5.8 85 +7  1001.2  -0.9  721  281           
21 20.04.18 200 (Ю) 10 км  в посл. час ливневой дождь  10/8 600 м кучево-дожд., средняя 
[Cb cap|Ac As]
+7.7 +5.6 87 +7  1000  -1.1  720  281           
00 21.04.18 200 (Ю) 10 км  в посл. час ливневой дождь  10/10 600 м кучево-дожд. 
[Cb cap]
+7 +5.3 89 +6  998.5  -1.6  719  281           
03 21.04.18 220 (ЮЗ) 4000 м  слаб. ливневой дождь  10/8 600 м кучево-дожд., средняя 
[Cb cap|Ac As]
+7.5 +5.8 89 +7  998.2  -0.2  718  281  +6.8      влажная 
18 21.04.18 060 (СВ) 20000 м  слаб. ливневой снег  10/10 600 м кучево-дожд. 
[Cb cap]
+2.1 -1 80 +1  1005.7  1.5  723  289           
21 21.04.18 100 (В) 4000 м  дымка{ливн. осадки}  10/8 600 м кучево-дожд., средняя 
[Cb cap|Ac As]
+1.1 -1.3 84 1006.4  0.5  724  290           
00 22.04.18 110 (В) 4000 м  дымка{ливн. осадки}  10/10 600 м кучево-дожд. 
[Cb cap]
+0.2 -2.1 85 -2  1006.8  0.3  724  292           
03 22.04.18 130 (ЮВ) 20000 м    9/9 600 м кучево-дожд., верхняя 
[Cb cap|Ci fib]
+0.4 -1.8 85 -1  1007.1  0.3  724  291  +0.1    0.1    влажная 
06 22.04.18 170 (Ю) 20000 м    10/10 600 м кучево-дожд. 
[Cb cap]
+3.3 -0.9 74 +2  1006.2  -0.5  724  288           
09 22.04.18 180 (Ю) 20000 м    6/5 1000 м верхняя 
[Cu med, cong|Ci fib]
+9.1 -1.6 47 +8  1003.7  -1.5  722  282           
18 22.04.18 190 (Ю) 20000 м    9/9 600 м 
[Sc]
+7.5 -4.3 43 +6  1002  0.2  721  283           
21 22.04.18 200 (Ю) 20000 м    10/10 600 м кучево-дожд. 
[Cb cap]
+6.5 -1.7 56 +5  1001.6  -0.5  721  284           
00 23.04.18 200 (Ю) 10 км  слаб. ливневой дождь  10/10 600 м кучево-дожд. 
[Cb cap]
+6.5 +3.7 82 +5  1001  -0.5  720  283           
Время (UTC), дата Ветер
(°,м/с) 
Видим.   Явления Облачность Т
(°С)
Тd
(°С)
f(%) Тe
(°С)
Pmin
(гПа)
dP
(гПа)
Po
(мм)
O2
(г/м3)
Тmin Tmax R s Состояние
почвы

Для получения пояснительной информации подведите курсор к названию столбца.

ПОГОДА в Акъяре - архив

Всё, что Вы хотите узнать о погоде в Акъяре - удобно и подробно!

Выберите нужную дату (начиная с 1 января 2015* года) и нажмите кнопку "Найти".
Будут отображены архивные сводки погоды по пункту Акъяр, начиная с указанной даты.


Отображать данные в формате CSV (для использования в таблицах Excel)


Внимание! Наш архив погоды предназначен исключительно для личного некоммерческого использования в познавательных целях. Если Вам необходимы официальные справки о состоянии погоды (для производственных, юридических, коммерческих и т.п. целей), обращайтесь в органы Росгидромета.

*Примечание: данная дата относится к архиву по метеостанциям СССР (Россия, СНГ, Балтия).
Архив по метеостанциям Зарубежной Европы и Азии (кроме Китая) хранится 10 дней, по другим регионам земного шара (Китай, Африка, Америка, Австралия, Океания) - 1 день.

Акъяр - район местоположения метеостанции


Название, широта, долгота, высота метеостанции:
Акъяр 51.9°ш. 58.2°д. 341 м над ур. моря [Российская Федерация]

Дополнительная информация

В oтличие oт бoльшинства пoгoдных сайтoв мы публикуем пoдрoбную метеoинфoрмацию в детальнoм прoфессиoнальнoм фoрмате.

Характеристики температуры и влажнoсти вoздуха измеряются на высoте 2 м в тени вдали oт зданий и деревьев.
Скoрoсть ветра измеряется на высoте 10 м (на урoвне рoста челoвека скoрoсть ветра ниже в 1.5-2 раза). Если метеoстанция нахoдится в гoрoде или в лесу, тo скoрoсть ветра занижена на 2-4 м/с пo сравнению с oткрытым местoм. Скoрoсть ветра над акватoриями крупных рек и oзёр, а также на вершинах хoлмoв на 2-5 м/с выше, чем в oбычных услoвиях.
Атмoсфернoе давление в разных тoчках местнoсти мoжет значительнo oтличаться oт давления на метеoстанции, в зависимoсти oт услoвий рельефа (при пoдъёме на 10 м давление пoнижается примернo на 1 мм рт.ст.).